TIME,DELAY(SENSOR),PRES,OXYGEN,RAWTEMP,T(OPTODE),TCPHASE,FLUOR,BETA(BETA700),BETA(BETA412),BETA(BETA440),CDOM,C(CSC),ED(ED411.90),ED(ED443.80),ED(ED489.40),ED(ED554.70),LU(LU412.20),LU(LU443.80),LU(LU489.40),LU(LU555.00),COMP,TILTX,TILTY,CHECK
1357509497,5805,855.6400146484375000,165.5733032226562500,419.5252990722656000,10.0067100524902340,38.8685417175293000,52,99,97,79,80,12356,2146959908,2147515739,2147287012,2147500324,2147090212,2146935113,2147700516,2147121334,1498,-2,9,60271
1357513093,5806,972.3300170898438000,193.0442962646484400,496.6011047363281000,7.6349020004272460,38.2764282226562500,52,100,99,79,80,12350,2146965037,2147516918,2147299236,2147512402,2147091209,2146921993,2147721362,2147122432,125,-1,9,27665
1357516693,5808,993.1199951171875000,203.3130035400390600,507.4953918457031000,7.2967672348022460,37.8273811340332000,52,100,96,79,82,12344,2146963437,2147516498,2147297398,2147518043,2147091684,2146928082,2147719305,2147121508,453,-1,9,18202
1357520293,5805,992.9899902343750000,203.3412017822265600,509.3746032714844000,7.2383589744567870,37.8589591979980500,53,103,97,79,81,12345,2146966381,2147515392,2147298450,2147518582,2147092763,2146922331,2147717741,2147123264,2864,-1,9,61525
1357523893,5805,997.0200195312500000,206.0664978027343800,511.3604125976562500,7.1766138076782230,37.7292289733886700,51,100,97,79,80,12340,2146962925,2147517302,2147298185,2147518125,2147089590,2146922093,2147719771,2147118893,3089,-1,9,37212
1357527493,5806,997.4299926757812000,206.1793060302734400,513.5463256835938000,7.1086101531982420,37.7608604431152340,52,102,99,80,81,12340,2146962806,2147518272,2147297481,2147519040,2147090258,2146918354,2147720109,2147122669,3248,-1,9,3214
1357531093,5804,995.2700195312500000,209.1280059814453000,515.8150024414062000,7.0379981994628910,37.6258201599121100,53,99,97,79,80,12341,2146960036,2147518592,2147302464,2147519460,2147093723,2146922194,2147721444,2147121316,3073,-1,9,3183
1357534693,5805,995.2999877929688000,212.4387969970703000,517.3621215820312000,6.9898238182067870,37.4591484069824200,53,101,98,78,81,12341,2146964260,2147519542,2147297920,2147520064,2147088923,2146916662,2147722267,2147120164,3324,-1,9,45609
1357538293,5806,996.0200195312500000,212.2799987792968800,517.7849731445312000,6.9766550064086910,37.4760017395019500,52,114,97,81,79,12335,2146964946,2147519140,2147300324,2147518153,2147090660,2146921243,2147716160,2147125403,3425,-1,9,9414
1357541893,5806,997.3099975585938000,212.7180023193359400,518.9608154296875000,6.9400248527526855,37.4711799621582000,52,102,98,80,80,12339,2146963565,2147520941,2147301229,2147515300,2147090413,2146921472,2147719542,2147122395,3540,-1,9,38841
1357545493,5807,1000.4699707031250000,212.1006927490234400,519.0786743164062000,6.9363517761230470,37.5091400146484400,52,102,97,78,80,12278,2146966025,2147519488,2147301467,2147518555,2147089581,2146917403,2147724096,2147122057,25,-1,8,55969
1357549093,5808,1003.3300170898438000,213.5670928955078000,518.2360839843750000,6.9626011848449710,37.4094009399414060,52,106,97,80,81,12280,2146965001,2147521078,2147302738,2147518171,2147091346,2146927963,2147718656,2147122852,3157,-1,9,40826
1357552693,5809,1003.8300170898438000,212.6239013671875000,517.2321166992188000,6.9938750267028810,37.4457702636718750,51,110,98,79,80,12278,2146965531,2147520192,2147300891,2147517686,2147090102,2146929910,2147723227,2147119753,36,-1,8,23115
1357556293,5808,1005.5399780273438000,212.2431030273437500,517.1369018554688000,6.9968380928039550,37.4666595458984400,52,102,99,80,80,12277,2146963574,2147521554,2147296969,2147517165,2147091190,2146922907,2147725705,2147119634,172,-1,9,45232
1357559893,5805,1003.6300048828125000,212.3957977294922000,517.2553100585938000,6.9931511878967285,37.4594802856445300,53,102,97,81,80,12278,2146963136,2147518390,2147300891,2147517632,2147090477,2146921691,2147720713,2147122797,553,-1,8,45946
1357563493,5806,1004.5100097656250000,211.8766021728515600,517.4514770507812000,6.9870409965515140,37.4939117431640600,52,100,98,78,80,12276,2146964544,2147517979,2147300397,2147516800,2147090660,2146923492,2147724397,2147121252,3147,-1,9,22801
1357567093,5804,1003.8800048828125000,211.7086029052734400,517.7288208007812000,6.9784049987792970,37.5088005065918000,52,100,98,79,82,12276,2146965238,2147516096,2147300644,2147520292,2147090322,2146923172,2147719131,2147120475,3131,-1,8,10403
1357570693,5808,1002.0499877929688000,211.2991943359375000,518.9694824218750000,6.9397559165954590,37.5540084838867200,52,101,97,81,81,12275,2146966793,2147517485,2147298203,2147521417,2147093522,2146924260,2147722422,2147122569,302,-1,9,52817
1357574293,5806,997.3599853515625000,212.7987976074218800,520.6132812500000000,6.8885340690612790,37.4956016540527340,52,102,96,80,81,12273,2146964854,2147517449,2147301376,2147518537,2147089115,2146923492,2147724196,2147119360,3465,-1,9,59954
1357577893,5806,996.2800292968750000,213.7108001708984400,521.1408081054688000,6.8720917701721190,37.4523887634277340,52,102,96,79,81,12271,2146965494,2147516845,2147299977,2147519350,2147093915,2146923154,2147725019,2147120722,3462,-1,9,45011
1357581493,5807,999.7299804687500000,214.4871063232422000,521.5479736328125000,6.8593988418579100,37.4153404235839840,51,102,99,79,80,12273,2146966080,2147520685,2147298998,2147516589,2147090587,2146926454,2147721462,2147119323,142,-1,8,14394
1357585093,5809,999.6699829101562000,215.4756011962890600,521.3228759765625000,6.8664140701293945,37.3543815612793000,52,101,99,78,81,12277,2146963145,2147517110,2147301449,2147516123,2147089984,2146925366,2147722898,2147122742,33,-1,8,9118
1357588693,5807,999.0599975585938000,214.3659973144531200,520.8104858398438000,6.8823871612548830,37.4093894958496100,52,103,97,79,81,12275,2146961956,2147520612,2147300013,2147516608,2147089938,2146927149,2147720777,2147121545,17,-1,9,36343
1357592293,5807,1003.3099975585938000,215.3240051269531200,520.5181884765625000,6.8914961814880370,37.3484382629394500,52,102,98,79,81,12274,2146963410,2147519963,2147301293,2147514386,2147091739,2146922029,2147720301,2147122651,126,-1,9,9710
1357595893,5807,999.4199829101562000,214.9638061523437500,520.9650878906250000,6.8775658607482910,37.3775482177734400,52,99,99,79,81,12269,2146959588,2147517348,2147300224,2147515190,2147093293,2146920987,2147722432,2147121133,385,-1,9,39930
1357599493,5806,1008.5999755859375000,213.9828033447265600,518.9901733398438000,6.9391121864318850,37.3983917236328100,52,102,97,78,81,12272,2146963355,2147519451,2147300809,2147515099,2147089810,2146920557,2147721298,2147117860,3502,-1,9,21185
1357603093,5809,1009.9500122070312000,213.7245941162109400,518.9420776367188000,6.9406099319458010,37.4126815795898440,52,100,97,78,81,12267,2146963648,2147516909,2147299364,2147518381,2147091702,2146923702,2147724379,2147122057,3593,-1,9,24746
1357606693,5804,1011.9299926757812000,213.4100036621093800,518.2827148437500000,6.9611501693725590,37.4194984436035160,52,101,98,79,81,12266,2146963172,2147516635,2147301540,2147515428,2147092873,2146926848,2147724598,2147119469,3200,-1,9,4817
1357610293,5805,1013.7299804687500000,211.1058959960937500,517.0100708007812000,7.0007858276367190,37.5311012268066400,53,102,98,78,81,12254,2146961051,2147516754,2147298642,2147517677,2147089508,2146924342,2147722706,2147122020,3149,-1,9,6077
1357613893,5806,1009.2399902343750000,212.6291961669922000,517.6547241210938000,6.9807119369506840,37.4531593322753900,52,107,98,80,81,12267,2146962148,2147516909,2147298761,2147517659,2147089947,2146924516,2147715702,2147119945,3532,-1,9,21813
1357617493,5805,1010.2100219726562000,212.1468963623047000,518.0651855468750000,6.9679260253906250,37.4889793395996100,52,100,98,79,80,12260,2146963904,2147517513,2147297353,2147515072,2147090715,2146927652,2147723702,2147121133,3279,-1,9,12665
1357621093,5808,1007.9299926757812000,212.5599975585937500,518.7100219726562000,6.9478411674499510,37.4764900207519500,52,101,97,80,80,12261,2146964470,2147523766,2147297965,2147517202,2147091236,2146924516,2147727542,2147119040,66,-1,8,32843
1357624693,5805,1003.8300170898438000,213.4004058837890600,520.1109008789062000,6.9041900634765625,37.4518699645996100,52,107,99,78,80,12260,2146958061,2147518070,2147301092,2147518765,2147089453,2146920502,2147722925,2147120018,3098,-1,9,29364
1357628293,5807,999.3499755859375000,214.0572967529297000,521.8515014648438000,6.8499369621276855,37.4449501037597660,52,101,99,79,81,12261,2146960420,2147519460,2147300315,2147515510,2147088877,2146921691,2147725412,2147120923,3256,-1,9,35100
1357631893,5807,1002.7800292968750000,215.3385009765625000,522.5983886718750000,6.8266491889953610,37.3845291137695300,52,102,99,81,82,12258,2146963062,2147518829,2147302006,2147517942,2147091748,2146916571,2147723053,2147119744,3353,-1,9,12532
1357635493,5807,999.9500122070312000,213.2391052246093800,522.6558837890625000,6.8248572349548340,37.5070114135742200,53,105,97,82,81,12257,2146962441,2147519963,2147300489,2147519771,2147091894,2146923346,2147720832,2147119286,21,-1,9,5044
1357639093,5807,998.7199707031250000,218.5001068115234400,523.8665161132812000,6.7871031761169430,37.2272796630859400,52,101,98,80,80,12261,2146963318,2147522185,2147299684,2147514313,2147094244,2146924333,2147724909,2147121060,502,-1,8,57857
1357642693,5806,1009.2999877929688000,216.1522064208984400,522.0744018554688000,6.8429870605468750,37.3288307189941400,53,102,99,79,80,12255,2146963419,2147517942,2147298633,2147515364,2147089307,2146914240,2147723291,2147120237,3410,-1,9,64724
1357646293,5807,1010.2899780273438000,215.4084014892578000,520.4332885742188000,6.8941440582275390,37.3419914245605500,52,106,98,79,81,12260,2146964123,2147520274,2147298843,2147515309,2147093906,2146922386,2147721152,2147121472,142,-1,9,2036
1357649893,5806,1013.6099853515625000,214.1560058593750000,519.0438232421875000,6.9374399185180660,37.3898010253906250,53,106,99,79,82,12256,2146961115,2147518107,2147301833,2147513060,2147091053,2146924690,2147719625,2147121389,2333,-1,9,54219
1357653493,5805,1010.1199951171875000,212.5339965820312500,519.4426269531250000,6.9250140190124510,37.4907798767089840,52,104,97,79,81,12255,2146963858,2147519890,2147302326,2147517494,2147094180,2146921398,2147726619,2147120045,3219,-1,9,43074
1357655156,5806,1009.1799926757812000,214.9736022949218800,519.9970092773438000,6.9077391624450680,37.3591804504394500,52,105,98,80,80,12313,2146965778,2147516982,2147297124,2147515419,2147093988,2146919469,2147724150,2147120329,726,-1,9,26185
